Tracking 25709 objects as of 24-May-2022
HD Live streaming from Space Station
objects crossing your sky now

COSMOS 2491 DEB

Track COSMOS 2491 DEB now!
10-day predictions


NORAD ID: 45127
Int'l Code: 2013-076Z
Perigee: 1,346.6 km
Apogee: 1,550.2 km
Inclination: 82.5 °
Period: 114.7 minutes
Semi major axis: 7819 km
RCS: Unknown
Launch date: December 25, 2013
Source: Commonwealth of Independent States (former USSR) (CIS)
Launch site: PLESETSK MISSILE AND SPACE COMPLEX (PKMTR)

Note: This is SATELLITE DEBRIS
aabbcc
Your satellite tracking list
Your tracking list is empty




NASA's NSSDC Master Catalog

Two Line Element Set (TLE):
1 45127U 13076Z   22143.34594094  .00001775  00000-0  10461-1 0  9999
2 45127  82.4535   1.4088 0130133 319.8887  39.2647 12.55575105106299
Source of the keplerian elements: AFSPC